Douglas, WY

2:48 PM MDT on May 24, 2017 (GMT -0600)
Converse County

Weather History for KDGW - February, 2013

Change the Weather History Date:

Saturday, February 16, 2013

  Actual Average Record
Temperature  
Mean Temperature 34 °F 27 °F  
Max Temperature 47 °F 40 °F 68 °F (2017)
Min Temperature 21 °F 13 °F -5 °F (2006)
Degree Days  
Heating Degree Days 31 38  
Month to date heating degree days 611 631  
Since 1 July heating degree days 4537 4962  
Cooling Degree Days 0 0  
Month to date cooling degree days 0 0  
Year to date cooling degree days 0 0  
Moisture  
Dew Point 19 °F    
Average Humidity 56    
Maximum Humidity 74    
Minimum Humidity 37    
Precipitation  
Precipitation 0.00 in 0.02 in 0.08 in (2014)
Month to date precipitation 0.08 0.24  
Year to date precipitation 0.17 0.62  
Sea Level Pressure  
Sea Level Pressure 30.11 in    
Wind  
Wind Speed 11 mph (WNW)    
Max Wind Speed 26 mph    
Max Gust Speed 31 mph    
Visibility 10 miles    
Events      
T = Trace of Precipitation, MM = Missing Value Source: NWS Daily Summary

Daily Weather History Graph

Daily Weather History Graph

Search for Another Location

Airport or City:

Trip Planner

Search our weather history database for the weather conditions in past years. The results will help you decide how hot, cold, wet, or windy it might be!

Date:

Astronomy

Feb. 16, 2013 Rise Set
Actual Time 6:56 AM MST 5:34 PM MST
Civil Twilight 6:27 AM MST 6:03 PM MST
Nautical Twilight 5:54 AM MST 6:36 PM MST
Astronomical Twilight 5:22 AM MST 7:09 PM MST
Moon 10:01 AM MST (2/16) No Moon Set
Length of Visible Light 11h 35m
Length of Day
10h 38m
Waxing Crescent, 40% of the Moon is Illuminated
Feb 16
Waxing Crescent
Feb 17
First Quarter
Feb 25
Full
Mar 4
Last Quarter
Mar 11
New

Hourly Weather History & Observations

Time (MST) Temp. Windchill Dew Point Humidity Pressure Visibility Wind Dir Wind Speed Gust Speed Precip Events Conditions
12:53 AM 28.0 °F 18.1 °F 17.1 °F 63% 30.25 in 10.0 mi NW 11.5 mph - N/A   Scattered Clouds
1:53 AM 26.1 °F 16.2 °F 16.0 °F 66% 30.25 in 10.0 mi NNW 10.4 mph - N/A   Clear
2:53 AM 27.0 °F 16.7 °F 16.0 °F 63% 30.23 in 10.0 mi NW 11.5 mph - N/A   Clear
3:53 AM 25.0 °F 14.2 °F 15.1 °F 66% 30.23 in 10.0 mi NNW 11.5 mph - N/A   Clear
4:53 AM 21.9 °F 13.4 °F 14.0 °F 72% 30.25 in 10.0 mi NW 6.9 mph - N/A   Clear
5:53 AM 23.0 °F 13.9 °F 15.1 °F 72% 30.26 in 10.0 mi NW 8.1 mph - N/A   Clear
6:53 AM 26.1 °F 16.2 °F 16.0 °F 66% 30.26 in 10.0 mi NW 10.4 mph - N/A   Clear
7:53 AM 27.0 °F 19.5 °F 16.0 °F 63% 30.26 in 10.0 mi NW 6.9 mph - N/A   Clear
8:53 AM 33.1 °F 25.5 °F 18.0 °F 54% 30.23 in 10.0 mi NW 9.2 mph 19.6 mph N/A   Clear
9:53 AM 37.0 °F 27.4 °F 21.0 °F 52% 30.19 in 10.0 mi WNW 17.3 mph 21.9 mph N/A   Clear
10:53 AM 41.0 °F 31.4 °F 21.9 °F 47% 30.16 in 10.0 mi WNW 21.9 mph 29.9 mph N/A   Clear
11:53 AM 43.0 °F 34.0 °F 21.9 °F 43% 30.13 in 10.0 mi NW 21.9 mph - N/A   Clear
12:53 PM 44.1 °F 36.2 °F 21.9 °F 42% 30.10 in 10.0 mi NW 18.4 mph 25.3 mph N/A   Clear
1:53 PM 46.0 °F 38.3 °F 21.9 °F 39% 30.07 in 10.0 mi WNW 20.7 mph 24.2 mph N/A   Clear
2:53 PM 46.9 °F - 23.0 °F 39% 30.04 in 10.0 mi West 16.1 mph - N/A   Clear
3:53 PM 46.9 °F - 23.0 °F 39% 30.04 in 10.0 mi West 11.5 mph - N/A   Clear
4:53 PM 43.0 °F 36.8 °F 23.0 °F 45% 30.04 in 10.0 mi WSW 11.5 mph - N/A   Clear
5:53 PM 39.0 °F 31.8 °F 21.9 °F 50% 30.04 in 10.0 mi West 11.5 mph - N/A   Clear
6:53 PM 35.1 °F 28.6 °F 21.9 °F 59% 30.04 in 10.0 mi SW 8.1 mph - N/A   Clear
7:53 PM 33.1 °F 27.7 °F 21.0 °F 61% 30.02 in 10.0 mi WNW 5.8 mph - N/A   Clear
8:53 PM 39.0 °F 32.3 °F 21.0 °F 49% 29.96 in 10.0 mi NW 10.4 mph - N/A   Clear
9:53 PM 37.9 °F 35.5 °F 19.9 °F 48% 29.92 in 10.0 mi NW 3.5 mph - N/A   Clear
10:53 PM 34.0 °F 28.8 °F 19.9 °F 56% 29.90 in 10.0 mi WNW 5.8 mph - N/A   Clear
11:53 PM 37.9 °F 35.5 °F 19.0 °F 47% 29.84 in 10.0 mi SW 3.5 mph - N/A   Clear